Location: Beuvrequen
(50.8014°N, 1.6652°E)
Time: 02:53:13
(UTC+00:00)

H-2A R/B - Pass Details

Date: 16 October 2021
Orbit: 528 x 650 km, 98.3° (Epoch: 05 December)

Event Time Altitude Azimuth Distance (km) Brightness Sun altitude
Rises 18:52:33 0° 181° (S) 2,932 6.0 -18.7°
Reaches altitude 10° 18:54:51 10° 188° (S) 2,014 5.2 -19.1°
Maximum altitude 18:59:02 43° 260° (W) 880 3.8 -19.7°
Drops below altitude 10° 19:03:08 10° 333° (NNW) 1,967 5.6 -20.4°
Sets 19:05:23 0° 340° (NNW) 2,854 6.4 -20.7°
